Location: Grange Rosano
(44.4500°N, 6.9667°E)
Time: 21:22:26
(UTC+00:00)

USA 305 - Pass Details

Date: 26 May 2022
Orbit: 549 x 553 km, 54.0° (Epoch: 14 June)

Event Time Altitude Azimuth Distance (km) Brightness Sun altitude
Exits shadow 01:02:59 38° 275° (W) 851 3.6 -21.0°
Maximum altitude 01:04:15 54° 330° (NNW) 669 3.3 -20.9°
Drops below altitude 10° 01:08:19 10° 49° (NE) 1,827 6.4 -20.6°
Sets 01:10:36 0° 54° (NE) 2,723 7.4 -20.5°
